Location: Moscow Pond
(43.6842°N, 73.2366°W)
Time: 02:04:54
(UTC+00:00)

ADEOS Rocket - Pass Details

Date: 08 November 2025
Orbit: 858 x 1304 km, 98.7° (Epoch: 04 December)

Event Time Altitude Azimuth Distance (km) Brightness Sun altitude
Rises 09:39:09 0° 3° (N) 3,775 6.1 -21.8°
Reaches altitude 10° 09:41:56 10° 352° (N) 2,888 5.3 -21.2°
Enters shadow 09:46:26 26° 309° (NW) 2,027 4.2 -20.4°
